Regional Weather Roundup
Issued by NWS

Home | Current Version | Previous Version | Text Only | Print | Product List | Glossary On
Versions: 1 2 3 4 5 6 7 8 9 10 11 12 13 14 15 16 17 18 19 20 21 22 23 24 25 26 27 28
000
ASUS45 KCYS 042210
RWRWY

WYOMING REGIONAL WEATHER ROUNDUP
NATIONAL WEATHER SERVICE CHEYENNE WY
300 PM MST SUN DEC 04 2016

NOTE:  "FAIR" INDICATES FEW OR NO CLOUDS BELOW 12,000 FEET
WITH NO SIGNIFICANT WEATHER AND/OR OBSTRUCTIONS TO VISIBILITY.

WYZ001-042300-
YELLOWSTONE NATIONAL PARK

CITY           SKY/WX    TMP DP  RH WIND       PRES   REMARKS
LK YELLOWSTONE   N/A     22  19  89 VRB7G17   29.68F WCI  13
W YELLOWSTONE  NOT AVBL

$$
WYZ002>013-054>058-071-098>099-042300-
NORTHERN WYOMING

CITY           SKY/WX    TMP DP  RH WIND       PRES   REMARKS
JACKSON        CLOUDY    28  28 100 S18G24    29.75F VSB 3/4 WCI  16
CODY           FAIR      36  26  67 NW13      29.63F WCI  27
GREYBULL       FAIR      40  17  39 NW6       29.62F
WORLAND        FAIR      39  20  46 CALM      29.62F
SHERIDAN       CLOUDY    39  20  46 E5        29.61F
BUFFALO        FAIR      42  14  32 E5        29.61F
GILLETTE       FAIR      40  19  43 E5        29.64F
HULETT         FAIR      37  19  48 SW8       29.66F WCI  31
NEWCASTLE      FAIR      37  19  48 SE9       29.71F WCI  31

$$
WYZ014>020-022>026-101>103-042300-
CENTRAL WYOMING

CITY           SKY/WX    TMP DP  RH WIND       PRES   REMARKS
BIG PINEY      CLOUDY    33  22  63 W30G43    29.83F WCI  19
PINEDALE       CLOUDY    28  21  74 MISG      29.83F
DUBOIS         LGT SNOW  30  21  69 NW13G33   29.65F WCI  20
LANDER         FAIR      43  21  41 NW14G24   29.66F
RIVERTON       FAIR      37  16  42 SW5       29.67F WCI  33
CASPER         LGT RAIN  40  17  39 SW39G49   29.68F WCI  27
DOUGLAS        FAIR      45  18  34 W24G33    29.69F

$$
WYZ021-027>030-104>119-042300-
SOUTHERN WYOMING

CITY           SKY/WX    TMP DP  RH WIND       PRES   REMARKS
EVANSTON       FAIR      36  15  42 SW23      29.92F WCI  24
KEMMERER         N/A     32  18  55 SW16G22   29.89F WCI  21
FORT BRIDGER   FAIR      37  18  46 W24G33    29.93F WCI  26
ROCK SPRINGS   CLOUDY    35  15  44 SW17      29.89F WCI  25
DIXON          CLOUDY    34  15  46 SW9G17    29.99F WCI  26
RAWLINS        FAIR      35  16  45 SW33G45   29.82F WCI  21
SARATOGA       CLOUDY    36  19  51 SW16G25   29.90S WCI  26
LARAMIE        FAIR      35  17  47 W32G44    29.83F WCI  21
CHEYENNE       FAIR      44  16  32 W24G36    29.78F
TORRINGTON     FAIR      46  15  28 W20G28    29.74F
PINE BLUFFS    FAIR      46  18  31 W21G26    29.80S

$$




USA.gov is the U.S. government's official web portal to all federal, state and local government web resources and services.